When you browse on this site, cookies collect data to enhance your experience and personalize the content and advertising you see.
Visit our Privacy Policy to learn more. By continuing to use the site, you agree to this use of cookies and data.

Hourly Weather Kipungo

Today, 14 August, Friday

Time Temperature Precipitation Wind Pressure Humidity
00:00 +16°C° 0 mm 1 mps 653 mmHg 26%
01:00 +13°C° 0 mm 0 mps 653 mmHg 29%
02:00 +14°C° 0 mm 1 mps 652 mmHg 31%
03:00 +13°C° 0 mm 1 mps 652 mmHg 32%
04:00 +12°C° 0 mm 1 mps 652 mmHg 33%
05:00 +13°C° 0 mm 1 mps 652 mmHg 33%
06:00 +13°C° 0 mm 1 mps 652 mmHg 33%
07:00 +14°C° 0 mm 1 mps 653 mmHg 32%
08:00 +19°C° 0 mm 2 mps 654 mmHg 25%
09:00 +24°C° 0 mm 3 mps 655 mmHg 19%
10:00 +28°C° 0 mm 4 mps 656 mmHg 13%
11:00 +30°C° 0 mm 3 mps 655 mmHg 11%
12:00 +34°C° 0 mm 2 mps 655 mmHg 9%
13:00 +36°C° 0 mm 2 mps 654 mmHg 7%
14:00 +35°C° 0 mm 1 mps 654 mmHg 6%
15:00 +35°C° 0 mm 1 mps 654 mmHg 6%
16:00 +35°C° 0 mm 1 mps 653 mmHg 6%
17:00 +31°C° 0 mm 1 mps 653 mmHg 8%
18:00 +27°C° 0 mm 1 mps 652 mmHg 10%
19:00 +23°C° 0 mm 1 mps 651 mmHg 12%
20:00 +21°C° 0 mm 1 mps 652 mmHg 21%
21:00 +19°C° 0 mm 2 mps 652 mmHg 31%
22:00 +17°C° 0 mm 2 mps 652 mmHg 40%
23:00 +16°C° 0 mm 2 mps 652 mmHg 48%

Tomorrow, 15 August, Saturday

Time Temperature Precipitation Wind Pressure Humidity
00:00 +15°C° 0 mm 2 mps 652 mmHg 56%
01:00 +14°C° 0 mm 1 mps 651 mmHg 64%
02:00 +13°C° 0 mm 1 mps 651 mmHg 63%
03:00 +13°C° 0 mm 1 mps 651 mmHg 62%
04:00 +13°C° 0 mm 1 mps 651 mmHg 61%
05:00 +13°C° 0 mm 1 mps 651 mmHg 58%
06:00 +13°C° 0 mm 1 mps 652 mmHg 56%
07:00 +13°C° 0 mm 1 mps 652 mmHg 53%
08:00 +19°C° 0 mm 1 mps 653 mmHg 40%
09:00 +24°C° 0 mm 1 mps 654 mmHg 27%
10:00 +29°C° 0 mm 1 mps 655 mmHg 14%
11:00 +31°C° 0 mm 1 mps 655 mmHg 12%
12:00 +34°C° 0 mm 1 mps 655 mmHg 9%
13:00 +36°C° 0 mm 1 mps 654 mmHg 7%
14:00 +36°C° 0 mm 1 mps 654 mmHg 7%
15:00 +35°C° 0 mm 1 mps 653 mmHg 7%
16:00 +35°C° 0 mm 1 mps 653 mmHg 7%
17:00 +32°C° 0 mm 1 mps 652 mmHg 9%
18:00 +28°C° 0 mm 1 mps 652 mmHg 11%
19:00 +24°C° 0 mm 1 mps 652 mmHg 14%
20:00 +21°C° 0 mm 2 mps 652 mmHg 25%
21:00 +19°C° 0 mm 2 mps 652 mmHg 37%
22:00 +17°C° 0 mm 2 mps 652 mmHg 48%
23:00 +16°C° 0 mm 2 mps 651 mmHg 52%

Day after tomorrow, 16 August, Sunday

Time Temperature Precipitation Wind Pressure Humidity
00:00 +15°C° 0 mm 1 mps 651 mmHg 55%
01:00 +14°C° 0 mm 1 mps 651 mmHg 59%
02:00 +14°C° 0 mm 1 mps 651 mmHg 60%
03:00 +12°C° 0 mm 0 mps 650 mmHg 62%
04:00 +11°C° 0 mm 0 mps 650 mmHg 63%
05:00 +12°C° 0 mm 0 mps 651 mmHg 60%
06:00 +13°C° 0 mm 1 mps 651 mmHg 58%
07:00 +14°C° 0 mm 1 mps 652 mmHg 55%
08:00 +19°C° 0 mm 1 mps 653 mmHg 41%
09:00 +24°C° 0 mm 2 mps 654 mmHg 28%
10:00 +29°C° 0 mm 2 mps 655 mmHg 14%
11:00 +31°C° 0 mm 2 mps 655 mmHg 12%
12:00 +34°C° 0 mm 3 mps 655 mmHg 10%
13:00 +36°C° 0 mm 3 mps 654 mmHg 7%
14:00 +36°C° 0 mm 2 mps 654 mmHg 7%
15:00 +36°C° 0 mm 2 mps 653 mmHg 7%
16:00 +35°C° 0 mm 1 mps 653 mmHg 6%
17:00 +32°C° 0 mm 1 mps 652 mmHg 8%
18:00 +28°C° 0 mm 1 mps 652 mmHg 10%
19:00 +24°C° 0 mm 1 mps 652 mmHg 12%
20:00 +23°C° 0 mm 1 mps 652 mmHg 18%
21:00 +20°C° 0 mm 2 mps 652 mmHg 24%
22:00 +18°C° 0 mm 2 mps 652 mmHg 29%
23:00 +18°C° 0 mm 1 mps 651 mmHg 37%

17 August, Monday

Time Temperature Precipitation Wind Pressure Humidity
00:00 +15°C° 0 mm 1 mps 651 mmHg 46%
01:00 +13°C° 0 mm 0 mps 651 mmHg 54%
02:00 +14°C° 0 mm 1 mps 651 mmHg 54%
03:00 +14°C° 0 mm 1 mps 651 mmHg 54%
04:00 +14°C° 0 mm 1 mps 651 mmHg 54%
05:00 +14°C° 0 mm 1 mps 651 mmHg 51%
06:00 +14°C° 0 mm 1 mps 652 mmHg 47%
07:00 +15°C° 0 mm 1 mps 652 mmHg 44%
08:00 +21°C° 0 mm 1 mps 653 mmHg 34%
09:00 +26°C° 0 mm 2 mps 655 mmHg 23%
10:00 +31°C° 0 mm 2 mps 656 mmHg 12%
11:00 +34°C° 0 mm 2 mps 655 mmHg 10%
12:00 +35°C° 0 mm 1 mps 655 mmHg 8%
13:00 +37°C° 0 mm 1 mps 655 mmHg 7%
14:00 +37°C° 0 mm 1 mps 654 mmHg 6%
15:00 +35°C° 0 mm 0 mps 654 mmHg 6%
16:00 +35°C° 0 mm 0 mps 653 mmHg 6%
17:00 +33°C° 0 mm 1 mps 653 mmHg 11%
18:00 +28°C° 0 mm 2 mps 653 mmHg 15%
19:00 +24°C° 0 mm 2 mps 652 mmHg 20%
20:00 +21°C° 0 mm 2 mps 652 mmHg 28%
21:00 +20°C° 0 mm 3 mps 652 mmHg 37%
22:00 +18°C° 0 mm 3 mps 652 mmHg 45%
23:00 +17°C° 0 mm 2 mps 652 mmHg 46%

18 August, Tuesday

Time Temperature Precipitation Wind Pressure Humidity
00:00 +16°C° 0 mm 2 mps 652 mmHg 47%
01:00 +15°C° 0 mm 1 mps 651 mmHg 48%
02:00 +14°C° 0 mm 1 mps 651 mmHg 49%
03:00 +13°C° 0 mm 0 mps 651 mmHg 51%
04:00 +12°C° 0 mm 0 mps 650 mmHg 52%
05:00 +12°C° 0 mm 0 mps 651 mmHg 50%
06:00 +13°C° 0 mm 0 mps 651 mmHg 49%
07:00 +13°C° 0 mm 0 mps 652 mmHg 47%
08:00 +20°C° 0 mm 1 mps 653 mmHg 35%
09:00 +24°C° 0 mm 2 mps 654 mmHg 24%
10:00 +29°C° 0 mm 3 mps 655 mmHg 12%
11:00 +31°C° 0 mm 3 mps 654 mmHg 10%
12:00 +34°C° 0 mm 3 mps 654 mmHg 8%
13:00 +36°C° 0 mm 3 mps 653 mmHg 7%
14:00 +36°C° 0 mm 2 mps 653 mmHg 6%
15:00 +36°C° 0 mm 2 mps 652 mmHg 6%
16:00 +36°C° 0 mm 1 mps 652 mmHg 6%
17:00 +32°C° 0 mm 1 mps 651 mmHg 8%
18:00 +28°C° 0 mm 1 mps 651 mmHg 10%
19:00 +25°C° 0 mm 2 mps 651 mmHg 12%
20:00 +21°C° 0 mm 2 mps 651 mmHg 22%
21:00 +19°C° 0 mm 2 mps 651 mmHg 32%
22:00 +17°C° 0 mm 2 mps 651 mmHg 42%
23:00 +16°C° 0 mm 1 mps 650 mmHg 48%

19 August, Wednesday

Time Temperature Precipitation Wind Pressure Humidity
00:00 +15°C° 0 mm 1 mps 650 mmHg 54%
01:00 +14°C° 0 mm 1 mps 650 mmHg 59%
02:00 +13°C° 0 mm 1 mps 650 mmHg 59%
03:00 +13°C° 0 mm 1 mps 650 mmHg 58%
04:00 +13°C° 0 mm 1 mps 650 mmHg 57%
05:00 +13°C° 0 mm 1 mps 650 mmHg 51%
06:00 +13°C° 0 mm 1 mps 651 mmHg 45%
07:00 +13°C° 0 mm 1 mps 651 mmHg 39%
08:00 +18°C° 0 mm 2 mps 652 mmHg 30%
09:00 +22°C° 0 mm 4 mps 653 mmHg 20%
10:00 +28°C° 0 mm 5 mps 654 mmHg 11%
11:00 +30°C° 0 mm 5 mps 653 mmHg 10%
12:00 +34°C° 0 mm 4 mps 653 mmHg 9%
13:00 +36°C° 0 mm 4 mps 652 mmHg 8%
14:00 +37°C° 0 mm 3 mps 652 mmHg 7%
15:00 +37°C° 0 mm 3 mps 652 mmHg 7%
16:00 +37°C° 0 mm 2 mps 651 mmHg 7%
17:00 +34°C° 0 mm 2 mps 651 mmHg 10%
18:00 +29°C° 0 mm 2 mps 651 mmHg 14%
19:00 +25°C° 0 mm 2 mps 651 mmHg 17%
20:00 +23°C° 0 mm 2 mps 651 mmHg 29%
21:00 +20°C° 0 mm 2 mps 651 mmHg 41%
22:00 +17°C° 0 mm 2 mps 651 mmHg 53%
23:00 +17°C° 0 mm 2 mps 651 mmHg 57%
Show more